Regional Weather Roundup
Issued by NWS Sioux Falls, SD

Home | Current Version | Previous Version | Graphics & Text | Print | Product List | Glossary On
Versions: 1 2 3 4 5 6 7 8 9 10 11 12 13 14 15 16 17 18 19 20 21 22 23 24 25 26 27 28 29 30 31 32 33 34 35 36 37 38 39 40 41 42 43 44 45 46 47 48 49 50
247
ASUS43 KFSD 171710
RWRFSD

WEATHER ROUNDUP FOR SE SOUTH DAKOTA/SW MINNESOTA/NW IOWA
NATIONAL WEATHER SERVICE SIOUX FALLS SD
1200 PM CDT THU AUG 17 2017

NOTE: "FAIR" INDICATES FEW OR NO CLOUDS BELOW 12,000 FEET WITH NO
SIGNIFICANT WEATHER AND OR OBSTRUCTIONS TO VISIBILITY.


SDZ038>040-050-052>070-171800-
SOUTHEAST SOUTH DAKOTA

CITY           SKY/WX    TMP DP  RH WIND       PRES   REMARKS
BROOKINGS      SUNNY     70  60  70 NW17      29.89R
CHAMBERLAIN    SUNNY     77  56  48 CALM      29.95F
HURON          SUNNY     74  62  66 NW12      29.92S
MADISON        FAIR      70  64  83 NW15      29.91S
MITCHELL       SUNNY     75  61  61 NW10      29.94S
SIOUX FALLS    MOSUNNY   74  62  66 NW12G21   29.89S
WINNER         FAIR      83  56  39 CALM      29.95F
YANKTON        SUNNY     74  61  63 NW15      29.94S
$$

MNZ071-072-080-081-089-090-097-098-171800-
SOUTHWEST MINNESOTA

CITY           SKY/WX    TMP DP  RH WIND       PRES   REMARKS
FAIRMONT       PTSUNNY   69  62  78 W23G31    29.80R
JACKSON        CLOUDY    64  59  82 W16G24    29.85R
LUVERNE        MOSUNNY   70  59  68 NW15      29.88F
MARSHALL       CLOUDY    66  61  84 NW17      29.84R
MONTEVIDEO     CLOUDY    66  66 100 N17       29.82R
PIPESTONE      MOSUNNY   72  61  68 N18G24    29.88S
REDWOOD FALLS  CLOUDY    68  61  78 NW15G25   29.79R
TRACY          CLOUDY    66  63  90 NW13G23   29.85R
WINDOM         SUNNY     64  61  88 W16G22    29.84R
WORTHINGTON    PTSUNNY   69  61  75 NW18G26   29.86S
$$

IAZ001>003-012>014-020>022-031-032-NEZ013-014-SDZ071-171800-
NORTHWEST IOWA

CITY           SKY/WX    TMP DP  RH WIND       PRES   REMARKS
CHEROKEE       PTSUNNY   71  63  74 W17       29.88R
DENISON        SUNNY     73  61  64 NW15G25   29.90S
ESTHERVILLE    CLOUDY    66  62  87 NW18G29   29.83R
LE MARS        SUNNY     73  61  64 NW16G23   29.89S
ORANGE CITY    SUNNY     72  64  78 NW14G23   29.89S
SHELDON        PTSUNNY   70  63  78 NW13G22   29.87S
SIOUX CITY     SUNNY     75  61  61 NW20G26   29.90R
SPENCER        CLOUDY    70  61  73 NW18G28   29.85S
STORM LAKE       N/A     68  63  83 NW15G24   29.88R
$$

ABBREVIATIONS USED IN REMARKS
   TC - TEMPERATURE IN CELSIUS
  WCI - WIND CHILL INDEX
   HX - HEAT INDEX
  VSB - VISIBILITY





USA.gov is the U.S. government's official web portal to all federal, state and local government web resources and services.